Location: Cajon Junction
(34.3117°N, 117.4748°W)
Time: 16:11:29
(UTC+00:00)

Cosmos 2297 - Pass Details

Date: 18 April 2024
Orbit: 834 x 859 km, 71.0° (Epoch: 20 May)

Event Time Altitude Azimuth Distance (km) Brightness Sun altitude
Rises 12:26:33 0° 332° (NNW) 3,437 6.8 -10.2°
Reaches altitude 10° 12:29:04 10° 328° (NNW) 2,498 6.0 -9.7°
Maximum altitude 12:34:35 50° 254° (WSW) 1,081 3.9 -8.7°
Drops below altitude 10° 12:40:05 10° 180° (S) 2,481 6.0 -7.6°
Sets 12:42:35 0° 175° (S) 3,411 6.7 -7.1°
